Location: Unspecified
(0.0000°N, 0.0000°E)
Time: 00:50:04
(UTC+00:00)

Transit 2A - All Passes

Search period start: 23 July 2017 00:00
Search period end: 02 August 2017 00:00
Orbit: 597 x 962 km, 66.7° (Epoch: 22 July)

Date Brightness Start Highest point End Pass type
(mag) Time Alt. Az. Time Alt. Az. Time Alt. Az.
23 Jul - 10:11:24 10° NE 10:14:59 16° ENE 10:18:36 10° ESE daylight
23 Jul - 11:51:59 10° NW 11:58:00 48° WSW 12:04:05 10° S daylight
23 Jul - 22:45:56 10° S 22:49:46 30° ESE 22:53:32 10° NE night (unlit)
24 Jul - 11:17:44 10° NNW 11:24:00 76° WSW 11:30:21 10° SSE daylight
24 Jul - 22:12:59 10° SSE 22:15:46 17° ESE 22:18:30 10° ENE night (unlit)
24 Jul - 23:55:38 10° WSW 23:58:37 18° WNW 00:01:35 10° NNW night (unlit)
25 Jul - 10:43:47 10° NNW 10:50:01 70° ENE 10:56:20 10° SSE daylight
25 Jul - 12:32:43 10° WSW 12:33:08 10° WSW 12:33:31 10° WSW daylight
25 Jul - 23:20:44 10° SW 23:24:38 33° WNW 23:28:31 10° N night (unlit)
26 Jul - 10:10:07 10° N 10:16:03 44° ENE 10:22:02 10° SE daylight
26 Jul - 11:55:06 10° WNW 11:59:05 17° WSW 12:03:05 10° SSW daylight
26 Jul - 22:46:22 10° SSW 22:50:40 64° WNW 22:54:56 10° N night (unlit)
27 Jul - 09:36:48 10° NNE 09:42:04 28° ENE 09:47:22 10° SE daylight
27 Jul - 11:19:50 10° NW 11:25:04 28° WSW 11:30:20 10° SSW daylight
27 Jul - 22:12:23 10° SSW 22:16:43 66° ESE 22:20:59 10° NNE night (unlit)
28 Jul - 09:04:01 10° NNE 09:08:03 18° ENE 09:12:08 10° ESE daylight
28 Jul - 10:45:09 10° NW 10:51:05 43° WSW 10:57:01 10° S daylight
28 Jul - 21:38:46 10° S 21:42:44 34° ESE 21:46:40 10° NE night (unlit)
29 Jul - 08:33:07 10° ENE 08:34:02 10° ENE 08:34:58 10° ENE daylight
29 Jul - 10:10:50 10° NNW 10:17:05 68° WSW 10:23:22 10° SSE daylight
29 Jul - 21:05:39 10° SSE 21:08:45 19° ESE 21:11:48 10° ENE night (unlit)
29 Jul - 22:48:58 10° WSW 22:51:36 16° WNW 22:54:14 10° NNW night (unlit)
30 Jul - 09:36:49 10° NNW 09:43:06 78° ENE 09:49:26 10° SSE daylight
30 Jul - 20:34:22 10° ESE 20:34:45 10° ESE 20:35:06 10° ESE night (unlit)
30 Jul - 22:13:53 10° SW 22:17:36 28° WNW 22:21:21 10° N night (unlit)
31 Jul - 09:03:05 10° N 09:09:07 49° ENE 09:15:12 10° SE daylight
31 Jul - 10:48:38 10° WNW 10:52:10 15° WSW 10:55:42 10° SW daylight
31 Jul - 21:39:25 10° SSW 21:43:38 54° WNW 21:47:52 10° N night (unlit)
01 Aug - 08:29:39 10° N 08:35:08 31° ENE 08:40:38 10° SE daylight
01 Aug - 10:13:08 10° WNW 10:18:09 25° WSW 10:23:10 10° SSW daylight
01 Aug - 21:05:21 10° SSW 21:09:41 78° ESE 21:14:00 10° NNE night (unlit)
